Regional Weather Roundup
Issued by NWS

Home | Current Version | Previous Version | Graphics & Text | Print | Product List | Glossary On
Versions: 1 2 3 4 5 6 7 8 9 10 11 12 13 14 15 16 17 18 19 20 21 22 23 24 25 26 27
000
ASUS45 KPSR 241710
RWRAZ

ARIZONA HOURLY REGIONAL WEATHER ROUNDUP
NATIONAL WEATHER SERVICE PHOENIX AZ
1000 AM MST SAT FEB 24 2018

NOTE: FAIR INDICATES FEW OR NO CLOUDS BELOW 12,000 FEET WITH NO
SIGNIFICANT WEATHER AND/OR OBSTRUCTIONS TO VISIBILITY.

AZZ001>003-036-241800-
NORTHWEST ARIZONA

CITY           SKY/WX    TMP DP  RH WIND       PRES   REMARKS
BULLHEAD CITY  SUNNY     48  14  25 N9        30.35R
KINGMAN        SUNNY     36  17  46 CALM      30.27S
$$

AZZ004>008-015-016-018-241800-
NORTH CENTRAL ARIZONA

CITY           SKY/WX    TMP DP  RH WIND       PRES   REMARKS
GRAND CANYON   SUNNY     19  15  84 S3        30.14S
WILLIAMS       SUNNY     19  16  86 CALM      30.13R
PRESCOTT       SUNNY     27  18  69 CALM      30.21S
FLAGSTAFF      SUNNY     21   3  45 SE6       30.12S WCI  13
PAYSON         SUNNY     34  16  47 S5        30.18S WCI  30
PAGE           SUNNY     30   7  37 CALM      30.17S
$$

AZZ009>014-017-241800-
NORTHEAST ARIZONA

CITY           SKY/WX    TMP DP  RH WIND       PRES   REMARKS
WINSLOW        SUNNY     28  19  69 CALM      30.21S
SAINT JOHNS    PTSUNNY   26  21  81 NW8       30.16S WCI  18
WINDOW ROCK    MOSUNNY   27  14  58 W8G17     30.09S WCI  19
SHOW LOW       PTSUNNY   25  18  74 CALM      30.17S
$$

AZZ540-542>544-546-548-241800-
GREATER PHOENIX AREA

CITY           SKY/WX    TMP DP  RH WIND       PRES   REMARKS
PHOENIX        SUNNY     48  25  40 SW3       30.27S
BUCKEYE        SUNNY     48  21  34 N7        30.30R
GLENDALE       SUNNY     48  23  37 CALM      30.29F
LUKE AFB       SUNNY     49  23  36 NE3       30.26F
DEER VALLEY    SUNNY     47  20  34 CALM      30.26S
SCOTTSDALE     SUNNY     46  27  47 S3        30.27S
MESA-FALCON    SUNNY     46  25  42 N8        30.28R
MESA-GATEWAY   SUNNY     45  27  49 N5        30.29R
CHANDLER       SUNNY     46  25  42 NW9       30.28R
$$

AZZ539-553-241800-
SOUTHWEST MARICOPA COUNTY AND PINAL COUNTY

CITY           SKY/WX    TMP DP  RH WIND       PRES   REMARKS
CASA GRANDE    NOT AVBL
GILA BEND      FAIR      47  22  36 CALM      30.30S
$$

AZZ503-504-507>509-241800-
SOUTHEAST ARIZONA

CITY           SKY/WX    TMP DP  RH WIND       PRES   REMARKS
TUCSON         SUNNY     45  24  43 NW3       30.26R
DAVIS-MONTHAN  SUNNY     44  24  46 NW3       30.24R
RYAN FIELD     SUNNY     45  27  49 W7        30.27R
NOGALES        SUNNY     46  11  24 N12       30.19S
SIERRA VISTA   SUNNY     41   8  25 E6        30.21S
DOUGLAS        SUNNY     42  18  37 NW8       30.20F
SAFFORD        SUNNY     44  22  41 NW9       30.20S
$$

AZZ532-241800-
SOUTHWEST ARIZONA

CITY           SKY/WX    TMP DP  RH WIND       PRES   REMARKS
YUMA           SUNNY     54  12  18 N14       30.35R
$$

CAZ041-043-047-048-061-525>527-560>570-241800-
SOUTHERN CALIFORNIA

CITY           SKY/WX    TMP DP  RH WIND       PRES   REMARKS
DOWNTOWN L.A.  SUNNY     52  15  23 CALM      30.35S
L.A. AIRPORT   SUNNY     52  18  26 E3        30.36R
SAN DIEGO      SUNNY     53  26  35 CALM      30.36S
BURBANK        SUNNY     49  12  22 CALM      30.34S
ONTARIO        SUNNY     48  13  24 E5        30.34S
RIVERSIDE      SUNNY     48  21  34 NE3       30.35R
PALM SPRINGS   SUNNY     51  13  21 CALM      30.37S
EL CENTRO NAS  SUNNY     52  16  24 NW5       30.39S
IMPERIAL       SUNNY     53  18  25 NW6       30.36S
BLYTHE         SUNNY     52  10  18 N9        30.35R
NEEDLES        SUNNY     50  11  20 N8        30.35S
$$

NVZ020-UTZ003-241800-
SOUTHERN NEVADA-UTAH

CITY           SKY/WX    TMP DP  RH WIND       PRES   REMARKS
LAS VEGAS      SUNNY     39   7  26 VRB3      30.29F
SALT LAKE CITY PTSUNNY   25  16  68 SE7       30.15F WCI  17
$$

NMZ009-TXZ055-241800-
NEW MEXICO-WEST TEXAS

CITY           SKY/WX    TMP DP  RH WIND       PRES   REMARKS
ALBUQUERQUE    PTSUNNY   33  12  41 NW17      30.10R WCI  22
EL PASO        SUNNY     48   1  14 W20G26    30.10S
$$


........................KEY........................
SKY/WX - SKY CONDITION/WEATHER
TMP    - TEMPERATURE IN FAHRENHEIT
DP     - DEW POINT IN FAHRENHEIT
RH     - RELATIVE HUMIDITY IN PERCENT
WIND   - DIRECTION AND SPEED IN MILES PER HOUR (MPH)
VRB    - VARIABLE WIND DIRECTION
PRES   - MEAN SEA LEVEL PRESSURE IN INCHES OF MERCURY
         F - FALLING PRESSURE   R - RISING PRESSURE
         S - STEADY PRESSURE
VSB    - VISIBILITY IN MILES
HX     - HEAT INDEX IN FAHRENHEIT
WCI    - WIND CHILL INDEX IN FAHRENHEIT
TC     - TEMPERATURE IN CELSIUS WHICH IS ALSO KNOWN AS
         TEMPERATURE IN CENTIGRADE
AFB    - AIR FORCE BASE
         LUKE AFB IS LUKE AIR FORCE BASE
         DAVIS-MONTHAN IS DAVIS-MONTHAN AIR FORCE BASE
NAS    - NAVAL AIR STATION
         EL CENTRO NAS IS EL CENTRO NAVAL AIR STATION
N/A    - NOT AVAILABLE





USA.gov is the U.S. government's official web portal to all federal, state and local government web resources and services.